Overview Statistics Trail Chart Weather Telemetry Raw packets
 

This is the latest recevied weather packets stored in our database for station/object AI5BL. If no packets are shown the sender has not sent any weather packets the latest 10 day(s).

<< 31 32 33 34 35 36 37 >>
Time Temp. Humidity Pressure Rain* Wind** Luminosity Snow
1788443224 30° C 77% 1018.7 hPa 0 mm - 236 W/m² -
1788442920 29.44° C 80% 1018.8 hPa 0 mm - 224 W/m² -
1788442618 29.44° C 81% 1018.7 hPa 0 mm - 207 W/m² -
1788442314 28.89° C 82% 1018.6 hPa 0 mm - 194 W/m² -
1788442015 28.33° C 83% 1018.7 hPa 0 mm - 193 W/m² -
1788441714 27.78° C 85% 1018.7 hPa 0 mm - 164 W/m² -
1788441409 27.78° C 84% 1018.7 hPa 0 mm - 150 W/m² -
1788441109 27.22° C 85% 1018.7 hPa 0 mm - 132 W/m² -
1788440804 26.11° C 89% 1018.8 hPa 0 mm - 99 W/m² -
1788440504 25° C 95% 1018.7 hPa 0 mm - 86 W/m² -
1788440202 23.89° C 98% 1018.7 hPa 0 mm - 77 W/m² -
1788439897 23.33° C 98% 1018.9 hPa 0 mm - 56 W/m² -
1788439591 22.78° C 99% 1018.9 hPa 0 mm - 40 W/m² -
1788439291 22.78° C 99% 1018.7 hPa 0 mm - 37 W/m² -
1788438985 22.78° C 99% 1018.7 hPa 0 mm - 35 W/m² -
1788438685 22.22° C 99% 1018.9 hPa 0 mm - 33 W/m² -
1788438384 22.78° C 99% 1018.7 hPa 0 mm - 30 W/m² -
1788438078 22.22° C 99% 1018.8 hPa 0 mm - 27 W/m² -
1788437778 22.22° C 99% 1018.8 hPa 0 mm - 24 W/m² -
1788437473 22.22° C 99% 1018.7 hPa 0 mm - 22 W/m² -
1788437172 22.22° C 99% 1018.6 hPa 0 mm - 19 W/m² -
1788436867 21.67° C 99% 1018.6 hPa 0 mm - 16 W/m² -
1788436565 21.67° C 99% 1018.7 hPa 0 mm - 12 W/m² -
1788436260 21.67° C 99% 1018.7 hPa 0 mm - 9 W/m² -
1788435955 22.22° C 99% 1018.4 hPa 0 mm - 7 W/m² -

* Rain latest hour (hover to see other rain measurements)
** Current wind speed in m/s (hover to see current wind gust speed)